Riverside, CA

12:12 AM PST on February 08, 2016 (GMT -0800)
Riverside Municipal

Weather History for KRAL - September, 2014

Change the Weather History Date:

Wednesday, September 10, 2014

  Actual Average Record
Temperature  
Mean Temperature 81 °F 77 °F  
Max Temperature 99 °F 92 °F 109 °F (1948)
Min Temperature 62 °F 63 °F 44 °F (1911)
Degree Days  
Heating Degree Days 0 0  
Month to date heating degree days 0 0  
Since 1 July heating degree days 0 0  
Cooling Degree Days 16 12  
Month to date cooling degree days 152 131  
Year to date cooling degree days 1743 1389  
Growing Degree Days 30 (Base 50)    
Moisture  
Dew Point 50 °F    
Average Humidity 44    
Maximum Humidity 72    
Minimum Humidity 15    
Precipitation  
Precipitation 0.00 in 0.01 in 1.36 in (1976)
Month to date precipitation 0.23 0.04  
Year to date precipitation 2.09 9.38  
Since 1 July precipitation 0.37  
Snow  
Snow 0.00 in - - ()
Month to date snowfall 0.0  
Year to date snowfall 0.0  
Snow Depth 0.00 in    
Sea Level Pressure  
Sea Level Pressure 29.83 in    
Wind  
Wind Speed 3 mph (WSW)    
Max Wind Speed 17 mph    
Max Gust Speed 24 mph    
Visibility 10 miles    
Events      
T = Trace of Precipitation, MM = Missing Value Source: NWS Daily Summary

Daily Weather History Graph

Daily Weather History Graph

Search for Another Location

Airport or City:

Trip Planner

Search our weather history database for the weather conditions in past years. The results will help you decide how hot, cold, wet, or windy it might be!

Date:

Astronomy

Sep. 10, 2014 Rise Set
Actual Time 6:29 AM PDT 7:03 PM PDT
Civil Twilight 6:04 AM PDT 7:28 PM PDT
Nautical Twilight 5:34 AM PDT 7:57 PM PDT
Astronomical Twilight 5:04 AM PDT 8:27 PM PDT
Moon 8:12 PM PDT (9/10) 8:15 AM PDT (9/10)
Length of Visible Light 13h 23m
Length of Day
12h 33m
Waning Gibbous, 96% of the Moon is Illuminated
Sep 10
Waning Gibbous
Sep 15
Last Quarter
Sep 23
New
Oct 1
First Quarter
Oct 8
Full

Hourly Weather History & Observations

Time (PDT) Temp. Heat Index Dew Point Humidity Pressure Visibility Wind Dir Wind Speed Gust Speed Precip Events Conditions
12:53 AM 69.1 °F - 51.1 °F 53% 29.88 in 10.0 mi Calm Calm - N/A   Clear
1:53 AM 66.9 °F - 50.0 °F 54% 29.88 in 10.0 mi Calm Calm - N/A   Clear
3:53 AM 64.9 °F - 51.1 °F 61% 29.86 in 10.0 mi Calm Calm - N/A   Clear
4:53 AM 64.9 °F - 52.0 °F 63% 29.86 in 10.0 mi Calm Calm - N/A   Clear
5:53 AM 62.1 °F - 54.0 °F 75% 29.87 in 10.0 mi Calm Calm - N/A   Clear
6:53 AM 64.0 °F - 53.1 °F 67% 29.88 in 10.0 mi ESE 3.5 mph - N/A   Clear
7:53 AM 68.0 °F - 52.0 °F 56% 29.88 in 10.0 mi Calm Calm - N/A   Clear
8:53 AM 73.0 °F - 51.1 °F 46% 29.89 in 10.0 mi Calm Calm - N/A   Clear
9:53 AM 79.0 °F - 52.0 °F 39% 29.88 in 10.0 mi Calm Calm - N/A   Clear
10:53 AM 84.0 °F - 43.0 °F 24% 29.87 in 10.0 mi West 3.5 mph - N/A   Clear
11:53 AM 88.0 °F - 44.1 °F 22% 29.85 in 10.0 mi Variable 4.6 mph - N/A   Clear
12:53 PM 89.1 °F - 46.9 °F 23% 29.82 in 10.0 mi Variable 5.8 mph - N/A   Clear
1:53 PM 95.0 °F - 43.0 °F 17% 29.79 in 10.0 mi West 5.8 mph - N/A   Clear
2:53 PM 98.1 °F - 43.0 °F 15% 29.76 in 10.0 mi Variable 5.8 mph - N/A   Clear
3:53 PM 98.1 °F - 48.9 °F 19% 29.74 in 10.0 mi West 13.8 mph 19.6 mph N/A   Clear
4:53 PM 93.9 °F 92.2 °F 55.9 °F 28% 29.74 in 10.0 mi West 15.0 mph 24.2 mph N/A   Clear
5:53 PM 90.0 °F 88.1 °F 55.9 °F 31% 29.75 in 10.0 mi West 13.8 mph 19.6 mph N/A   Clear
6:53 PM 87.1 °F - 52.0 °F 30% 29.76 in 10.0 mi West 6.9 mph - N/A   Clear
8:53 PM 81.0 °F - 46.9 °F 30% 29.82 in 10.0 mi Calm Calm - N/A   Clear
9:53 PM 79.0 °F - 48.9 °F 35% 29.84 in 10.0 mi Calm Calm - N/A   Clear
10:53 PM 77.0 °F - 50.0 °F 39% 29.85 in 10.0 mi Calm Calm - N/A   Clear
11:53 PM 75.0 °F - 48.9 °F 40% 29.85 in 10.0 mi Calm Calm - N/A   Clear